Showing default

IRIDIUM 118, 42807

Orbit data source: Space-Track

IRIDIUM 118, 42807 is a payload satellite owned by Iridium (US) in LEO that was launched on Sun, 25 Jun 2017 UTC via an FALCON 9 launch vehicle from the Air Force Western Test Range (AFWTR). Payloads include a variety of satellites, spacecraft, and rockets equipped with specific instruments for various scientific and technological missions. These include communications satellites like Starlink; space stations such as the ISS; scientific satellites like the Hubble; Earth observation satellites from companies like Planet Labs, Umbra, and HawkEye 360; GPS; miniature CubeSats for education and research; and military/defense satellites.

Loading next visibility...
IRIDIUM 118 details
Identifier
42807, 2017-039E
Orbit
LEO
Last TLE update15 hours ago
Origin
Flag of USIridium (US)
ManufacturerOATK SSG Gilbert
MissionOperational Commercial Communications
Bus & MotorELITEBUS, Unknown motor
Mass860 kg wet, 700 kg dry
Launch date (UTC)
2017-06-25 (8 years ago)
Launch vehicle
FALCON 9
Launch site
Air Force Western Test Range (AFWTR)
Object type
Payload
Rocket body
Debris
Shape & HBRTrap Box + 2 Pan, 9.4 m
Radar Cross Section14.423 m², Large (>1 m²)

Expand to show TLE details & history

TLE from 15 hours ago
0 IRIDIUM 118
1 42807U 17039E   24361.11919809  .00000161  00000-0  50499-4 0  9994
2 42807  86.3977 218.4551 0002131  86.7635 273.3805 14.34219188392824
Epoch: 2024-12-26T02:51Z
Definitive object data (Epoch: 2024-12-26T02:51:38.714Z)
Latitude-0.00001°
Longitude80.44062°
Altitude780.624 km
Speed7.464 km/s
True Right ascension14h 33m 49s
True Declination0° 00' 00"
Sunlit
Object was in daylight at TLE epoch
Visualization TLE readout
Latitude19.15751°
Longitude81.42324°
Altitude779.598 km
Speed7.466 km/s
Apparent Right ascension11h 32m 17s
Apparent Declination-21° 09' 57"
Sunlit
Object is in daylight
Visualization observer readout
Local Sidereal Time17:23:35
Azimuth252.176° W
Elevation-11.805°
Doppler factor1
Orbital elements
Apogee altitude776.151 km
Perigee altitude773.103 km
Semi-major axis7,152.764 km
Eccentricity0.0002131
Inclination86.3977°
RAAN218.4551°
Arg. of periapsis86.7635°
True anomaly273.35612°
Mean anomaly273.3805°
Eccentric anomaly273.36831°
Mean motion3.58783 °/min
BSTAR0.000050499
Orbital period100.34 mins
Loading maneuver chart data...
Loading historical data...
Loading historical data...
Loading historical data...
Loading historical data...
Loading historical data...
Loading historical data...
Loading historical data...

IRIDIUM 118 Visibility forecast

Observer location: undefined°, undefined

Span
Click to sort rows by Start time (UTC) header in descending order
Start Az.
Max El. time (UTC)
Max El. Az.
Max El.
End time (UTC)
End Az.
10 mins2024-12-27 02:52:10.106Z357.039° N2024-12-27 02:57:10.106Z298.557° NW44.982°2024-12-27 03:02:10.106Z179.841° S
6 mins2024-12-27 14:10:10.106Z118.47° SE2024-12-27 14:13:10.106Z74.913° E20.048°2024-12-27 14:16:10.106Z36.639° NE
7 mins2024-12-27 15:50:10.106Z219.052° SW2024-12-27 15:53:10.106Z276.723° WNW32.984°2024-12-27 15:57:10.106Z342.847° N
|